Location: Bergheim
(50.9593°N, 6.6400°E)
Time: 02:13:14
(UTC+01:00)

ISS - Visible Passes

Search period start: 29 November 2023 00:00
Search period end: 09 December 2023 00:00
Orbit: 416 x 418 km, 51.6° (Epoch: 28 November)

Date Brightness Start Highest point End Pass type
(mag) Time Alt. Az. Time Alt. Az. Time Alt. Az.
29 Nov -3.8 18:16:29 10° W 18:19:52 85° S 18:21:00 39° ESE visible
29 Nov -0.4 19:53:25 10° W 19:53:55 13° W 19:53:55 13° W visible
30 Nov -3.8 17:28:08 10° W 17:31:31 83° N 17:34:46 11° E visible
30 Nov -2.4 19:04:58 10° W 19:07:41 37° SW 19:07:41 37° SW visible
01 Dec -3.2 18:16:32 10° W 18:19:50 54° SSW 18:21:32 25° SE visible
01 Dec -0.3 19:54:09 10° WSW 19:54:27 11° WSW 19:54:27 11° WSW visible
02 Dec -3.5 17:28:05 10° WNW 17:31:27 71° SSW 17:34:48 10° ESE visible
02 Dec -1.5 19:05:13 10° W 19:07:49 21° SW 19:08:25 20° SSW visible
03 Dec -1.9 18:16:31 10° W 18:19:30 29° SSW 18:22:27 10° SSE visible
04 Dec -2.5 17:27:54 10° W 17:31:06 41° SSW 17:34:16 10° SE visible
05 Dec -0.7 18:16:49 10° WSW 18:18:50 15° SW 18:20:50 10° S visible
06 Dec -1.1 17:27:46 10° W 17:30:25 22° SW 17:33:05 10° SSE visible
08 Dec 0.0 17:28:40 10° WSW 17:29:25 11° SW 17:30:10 10° SSW visible
